When you browse on this site, cookies collect data to enhance your experience and personalize the content and advertising you see.
Visit our Privacy Policy to learn more. By continuing to use the site, you agree to this use of cookies and data.
  • în România
  • Lista ţărilor
  • Pe 7 zile
  • Temperatura apei
  • Hartă satelitară
  • Meteo pe hartă
  • Widget-uri
  • user-avatar
    Intrare

    Meteo pe oră la Escaldes-Engordany

    Astăzi, 22 Martie, Vineri

    Timp Temperatura Precipitaţii Vânt Presiune Umiditate
    00:00 +1°C° 0 mm 1 m/s 642 mmHg 55%
    01:00 +1°C° 0 mm 1 m/s 642 mmHg 54%
    02:00 +1°C° 0 mm 1 m/s 642 mmHg 52%
    03:00 +1°C° 0 mm 1 m/s 642 mmHg 51%
    04:00 +1°C° 0 mm 1 m/s 642 mmHg 51%
    05:00 +1°C° 0 mm 1 m/s 642 mmHg 51%
    06:00 +1°C° 0 mm 1 m/s 642 mmHg 52%
    07:00 +4°C° 0 mm 1 m/s 643 mmHg 48%
    08:00 +7°C° 0 mm 1 m/s 644 mmHg 45%
    09:00 +10°C° 0 mm 1 m/s 646 mmHg 41%
    10:00 +11°C° 0 mm 1 m/s 646 mmHg 40%
    11:00 +12°C° 0 mm 1 m/s 646 mmHg 39%
    12:00 +14°C° 0 mm 1 m/s 647 mmHg 37%
    13:00 +13°C° 0.1 mm 1 m/s 646 mmHg 41%
    14:00 +12°C° 0.1 mm 1 m/s 646 mmHg 45%
    15:00 +12°C° 0.1 mm 1 m/s 645 mmHg 49%
    16:00 +9°C° 0.2 mm 0 m/s 644 mmHg 55%
    17:00 +8°C° 0.2 mm 0 m/s 644 mmHg 60%
    18:00 +6°C° 0.2 mm 0 m/s 643 mmHg 66%
    19:00 +5°C° 0 mm 0 m/s 643 mmHg 69%
    20:00 +4°C° 0 mm 0 m/s 643 mmHg 72%
    21:00 +4°C° 0 mm 1 m/s 643 mmHg 76%
    22:00 +4°C° 0 mm 1 m/s 643 mmHg 76%
    23:00 +4°C° 0 mm 1 m/s 643 mmHg 76%

    Mâine, 23 Martie, Sâmbătă

    Timp Temperatura Precipitaţii Vânt Presiune Umiditate
    00:00 +4°C° 0 mm 1 m/s 643 mmHg 76%
    01:00 +4°C° 0 mm 1 m/s 643 mmHg 76%
    02:00 +4°C° 0 mm 1 m/s 643 mmHg 75%
    03:00 +4°C° 0 mm 1 m/s 642 mmHg 74%
    04:00 +3°C° 0 mm 1 m/s 642 mmHg 73%
    05:00 +3°C° 0 mm 1 m/s 642 mmHg 72%
    06:00 +3°C° 0 mm 1 m/s 642 mmHg 71%
    07:00 +6°C° 0 mm 1 m/s 643 mmHg 61%
    08:00 +9°C° 0 mm 1 m/s 644 mmHg 51%
    09:00 +11°C° 0 mm 0 m/s 645 mmHg 41%
    10:00 +12°C° 0 mm 0 m/s 646 mmHg 39%
    11:00 +14°C° 0 mm 1 m/s 646 mmHg 36%
    12:00 +15°C° 0 mm 1 m/s 646 mmHg 33%
    13:00 +15°C° 0 mm 1 m/s 646 mmHg 34%
    14:00 +15°C° 0 mm 1 m/s 645 mmHg 36%
    15:00 +15°C° 0 mm 1 m/s 645 mmHg 37%
    16:00 +13°C° 0 mm 1 m/s 644 mmHg 45%
    17:00 +11°C° 0 mm 1 m/s 643 mmHg 53%
    18:00 +9°C° 0 mm 1 m/s 642 mmHg 61%
    19:00 +8°C° 0 mm 1 m/s 642 mmHg 65%
    20:00 +7°C° 0 mm 1 m/s 642 mmHg 69%
    21:00 +6°C° 0 mm 1 m/s 642 mmHg 73%
    22:00 +6°C° 0 mm 1 m/s 642 mmHg 72%
    23:00 +6°C° 0 mm 1 m/s 642 mmHg 72%

    Poimâine, 24 Martie, Duminică

    Timp Temperatura Precipitaţii Vânt Presiune Umiditate
    00:00 +5°C° 0 mm 1 m/s 642 mmHg 71%
    01:00 +5°C° 0 mm 1 m/s 642 mmHg 69%
    02:00 +5°C° 0 mm 1 m/s 642 mmHg 67%
    03:00 +5°C° 0 mm 1 m/s 642 mmHg 65%
    04:00 +5°C° 0 mm 1 m/s 641 mmHg 63%
    05:00 +5°C° 0 mm 1 m/s 641 mmHg 62%
    06:00 +5°C° 0 mm 1 m/s 641 mmHg 61%
    07:00 +7°C° 0 mm 1 m/s 642 mmHg 54%
    08:00 +10°C° 0 mm 1 m/s 644 mmHg 47%
    09:00 +12°C° 0 mm 1 m/s 645 mmHg 41%
    10:00 +13°C° 0 mm 1 m/s 645 mmHg 40%
    11:00 +14°C° 0 mm 1 m/s 645 mmHg 39%
    12:00 +16°C° 0 mm 1 m/s 645 mmHg 37%
    13:00 +15°C° 0.1 mm 1 m/s 644 mmHg 41%
    14:00 +14°C° 0.1 mm 1 m/s 644 mmHg 45%
    15:00 +13°C° 0.1 mm 1 m/s 643 mmHg 49%
    16:00 +12°C° 0.4 mm 1 m/s 643 mmHg 58%
    17:00 +10°C° 0.4 mm 1 m/s 642 mmHg 66%
    18:00 +9°C° 0.4 mm 1 m/s 642 mmHg 75%
    19:00 +8°C° 0.1 mm 1 m/s 642 mmHg 79%
    20:00 +7°C° 0.1 mm 1 m/s 642 mmHg 84%
    21:00 +7°C° 0.1 mm 1 m/s 642 mmHg 88%
    22:00 +6°C° 0 mm 1 m/s 642 mmHg 89%
    23:00 +6°C° 0 mm 1 m/s 642 mmHg 90%

    25 Martie, Luni

    Timp Temperatura Precipitaţii Vânt Presiune Umiditate
    00:00 +6°C° 0 mm 1 m/s 641 mmHg 92%
    01:00 +5°C° 0 mm 1 m/s 641 mmHg 92%
    02:00 +5°C° 0 mm 1 m/s 641 mmHg 92%
    03:00 +5°C° 0 mm 1 m/s 641 mmHg 93%
    04:00 +4°C° 0 mm 1 m/s 640 mmHg 92%
    05:00 +4°C° 0 mm 1 m/s 640 mmHg 91%
    06:00 +4°C° 0 mm 1 m/s 640 mmHg 90%
    07:00 +6°C° 0 mm 1 m/s 641 mmHg 78%
    08:00 +8°C° 0 mm 1 m/s 642 mmHg 67%
    09:00 +11°C° 0 mm 1 m/s 643 mmHg 55%
    10:00 +12°C° 0 mm 1 m/s 643 mmHg 51%
    11:00 +13°C° 0 mm 1 m/s 643 mmHg 47%
    12:00 +14°C° 0 mm 1 m/s 644 mmHg 43%
    13:00 +13°C° 0.1 mm 2 m/s 643 mmHg 48%
    14:00 +13°C° 0.1 mm 2 m/s 642 mmHg 52%
    15:00 +12°C° 0.1 mm 2 m/s 642 mmHg 56%
    16:00 +10°C° 0.1 mm 2 m/s 641 mmHg 63%
    17:00 +8°C° 0.1 mm 2 m/s 641 mmHg 70%
    18:00 +7°C° 0.1 mm 2 m/s 640 mmHg 78%
    19:00 +6°C° 0 mm 2 m/s 640 mmHg 82%
    20:00 +5°C° 0 mm 2 m/s 640 mmHg 85%
    21:00 +4°C° 0 mm 2 m/s 640 mmHg 89%
    22:00 +3°C° 0 mm 2 m/s 640 mmHg 88%
    23:00 +3°C° 0 mm 2 m/s 640 mmHg 86%

    26 Martie, Marţi

    Timp Temperatura Precipitaţii Vânt Presiune Umiditate
    00:00 +2°C° 0 mm 2 m/s 640 mmHg 85%
    01:00 +2°C° 0 mm 2 m/s 640 mmHg 80%
    02:00 +1°C° 0 mm 2 m/s 640 mmHg 76%
    03:00 +1°C° 0 mm 2 m/s 639 mmHg 71%
    04:00 +1°C° 0 mm 2 m/s 640 mmHg 71%
    05:00 +1°C° 0 mm 2 m/s 640 mmHg 71%
    06:00 +1°C° 0 mm 2 m/s 640 mmHg 71%
    07:00 +4°C° 0 mm 2 m/s 641 mmHg 59%
    08:00 +7°C° 0 mm 2 m/s 643 mmHg 46%
    09:00 +12°C° 0 mm 1 m/s 644 mmHg 34%
    10:00 +13°C° 0 mm 1 m/s 645 mmHg 30%
    11:00 +14°C° 0 mm 1 m/s 645 mmHg 27%
    12:00 +16°C° 0 mm 1 m/s 646 mmHg 24%
    13:00 +15°C° 0 mm 1 m/s 646 mmHg 27%
    14:00 +15°C° 0 mm 2 m/s 645 mmHg 30%
    15:00 +15°C° 0 mm 2 m/s 645 mmHg 32%
    16:00 +12°C° 0 mm 1 m/s 645 mmHg 42%
    17:00 +10°C° 0 mm 1 m/s 644 mmHg 51%
    18:00 +8°C° 0 mm 1 m/s 643 mmHg 60%
    19:00 +7°C° 0 mm 1 m/s 644 mmHg 66%
    20:00 +6°C° 0 mm 1 m/s 644 mmHg 72%
    21:00 +5°C° 0 mm 1 m/s 644 mmHg 79%
    22:00 +4°C° 0 mm 1 m/s 644 mmHg 81%
    23:00 +4°C° 0 mm 1 m/s 644 mmHg 83%

    27 Martie, Miercuri

    Timp Temperatura Precipitaţii Vânt Presiune Umiditate
    00:00 +4°C° 0 mm 1 m/s 644 mmHg 86%
    01:00 +3°C° 0 mm 1 m/s 644 mmHg 86%
    02:00 +3°C° 0 mm 1 m/s 643 mmHg 86%
    03:00 +3°C° 0 mm 1 m/s 643 mmHg 87%
    04:00 +3°C° 0 mm 1 m/s 643 mmHg 85%
    05:00 +3°C° 0 mm 1 m/s 643 mmHg 83%
    06:00 +3°C° 0 mm 1 m/s 643 mmHg 82%
    07:00 +6°C° 0 mm 1 m/s 644 mmHg 68%
    08:00 +9°C° 0 mm 1 m/s 646 mmHg 54%
    09:00 +12°C° 0 mm 1 m/s 647 mmHg 40%
    10:00 +13°C° 0 mm 1 m/s 647 mmHg 37%
    11:00 +15°C° 0 mm 1 m/s 647 mmHg 34%
    12:00 +16°C° 0 mm 1 m/s 648 mmHg 30%
    13:00 +16°C° 0 mm 1 m/s 647 mmHg 31%
    14:00 +16°C° 0 mm 1 m/s 647 mmHg 33%
    15:00 +15°C° 0 mm 1 m/s 646 mmHg 34%
    16:00 +13°C° 0 mm 1 m/s 645 mmHg 42%
    17:00 +11°C° 0 mm 1 m/s 644 mmHg 49%
    18:00 +9°C° 0 mm 1 m/s 644 mmHg 57%
    19:00 +7°C° 0 mm 1 m/s 643 mmHg 61%
    20:00 +6°C° 0 mm 1 m/s 643 mmHg 65%
    21:00 +4°C° 0 mm 1 m/s 643 mmHg 69%
    22:00 +4°C° 0 mm 1 m/s 643 mmHg 68%
    23:00 +4°C° 0 mm 1 m/s 643 mmHg 68%
    Arată mai mult